Location: Caltech
(34.1382°N, 118.1253°W)
Time: 13:13:21
(UTC-07:00)

Cosmos 1758 Rocket - Visible Passes

Search period start: 30 August 2014 00:00
Search period end: 09 September 2014 00:00
Orbit: 603 x 639 km, 82.5° (Epoch: 30 August)

Date Brightness Start Highest point End Pass type
(mag) Time Alt. Az. Time Alt. Az. Time Alt. Az.
30 Aug 5.5 19:57:21 10° NNW 20:01:18 33° W 20:05:16 10° SSW visible
31 Aug 6.6 20:16:14 10° NW 20:19:05 17° W 20:21:56 10° SW visible
04 Sep 6.8 19:50:31 10° NW 19:53:03 15° W 19:55:36 10° WSW visible
08 Sep 6.8 05:56:59 10° ESE 05:59:26 15° E 06:01:53 10° NE visible
